WAT1341 KDAY-CYKF

Flight info

Callsign WAT1341
Flight time 0h 47m
Altitude 39000
Route WIPOT DCT FLYIR DCT DJB DCT DERLO
Aircraft CL60/M-SADE3FGHIJ3J4J7P2RWXY/HB1D1

Departure

Time 2026-05-09 02:36
Airport James M. Cox Dayton International Airport (KDAY)

Arrival

Time 2026-05-09 03:24
Airport Region of Waterloo International Airport (CYKF)
Time Latitude Longitude Altitude Speed Heading
2026-05-09 02:15 39.89920 -84.20132 1003 ft 0 kts 269°
2026-05-09 02:31 39.89924 -84.20146 1003 ft 4 kts 307°
2026-05-09 02:31 39.89961 -84.20158 1004 ft 7 kts 357°
2026-05-09 02:31 39.90018 -84.20160 1003 ft 6 kts 359°
2026-05-09 02:31 39.90075 -84.20162 1003 ft 8 kts 357°
2026-05-09 02:32 39.90107 -84.20164 1003 ft 0 kts 358°
2026-05-09 02:34 39.90108 -84.20164 1003 ft 2 kts 358°
2026-05-09 02:35 39.90156 -84.20172 1003 ft 9 kts 339°
2026-05-09 02:35 39.90173 -84.20215 1003 ft 6 kts 257°
2026-05-09 02:35 39.90130 -84.20304 1004 ft 27 kts 236°
2026-05-09 02:35 39.89851 -84.20830 1006 ft 116 kts 236°
2026-05-09 02:36 39.89275 -84.21908 1336 ft 164 kts 236°
2026-05-09 02:36 39.88579 -84.23146 2164 ft 182 kts 234°
2026-05-09 02:36 39.87598 -84.24359 2753 ft 211 kts 220°
2026-05-09 02:36 39.86412 -84.25496 2953 ft 213 kts 219°
2026-05-09 02:37 39.85141 -84.26689 3683 ft 235 kts 219°
2026-05-09 02:37 39.83815 -84.27711 5378 ft 232 kts 204°
2026-05-09 02:37 39.82149 -84.27864 6519 ft 259 kts 180°
2026-05-09 02:37 39.80363 -84.27222 7623 ft 282 kts 160°
2026-05-09 02:38 39.78739 -84.25741 8800 ft 300 kts 138°
2026-05-09 02:38 39.77630 -84.23415 10016 ft 314 kts 109°
2026-05-09 02:38 39.77395 -84.20576 10828 ft 335 kts 85°
2026-05-09 02:38 39.77655 -84.17393 11240 ft 367 kts 82°
2026-05-09 02:39 39.77949 -84.14064 12038 ft 384 kts 82°
2026-05-09 02:39 39.78251 -84.10530 12676 ft 396 kts 83°
2026-05-09 02:39 39.78550 -84.06984 12923 ft 397 kts 82°
2026-05-09 02:39 39.78847 -84.03434 12976 ft 395 kts 83°
2026-05-09 02:40 39.79138 -83.99910 12980 ft 394 kts 83°
2026-05-09 02:40 39.79430 -83.96353 12973 ft 393 kts 83°
2026-05-09 02:40 39.79718 -83.92807 13004 ft 403 kts 83°
2026-05-09 02:40 39.80014 -83.89158 13857 ft 412 kts 83°
2026-05-09 02:41 39.80305 -83.85506 15120 ft 409 kts 83°
2026-05-09 02:41 39.80599 -83.81825 16144 ft 413 kts 83°
2026-05-09 02:41 39.80896 -83.78071 17008 ft 420 kts 83°
2026-05-09 02:41 39.81195 -83.74261 17802 ft 428 kts 83°
2026-05-09 02:42 39.81496 -83.70411 18611 ft 435 kts 83°
2026-05-09 02:42 39.81804 -83.66447 19407 ft 441 kts 83°
2026-05-09 02:42 39.82109 -83.62493 20123 ft 448 kts 83°
2026-05-09 02:42 39.82418 -83.58469 20842 ft 454 kts 84°
2026-05-09 02:43 39.82731 -83.54374 21518 ft 460 kts 84°
2026-05-09 02:43 39.83234 -83.50279 22198 ft 465 kts 74°
2026-05-09 02:43 39.84188 -83.46243 22743 ft 472 kts 70°
2026-05-09 02:43 39.85207 -83.42147 23396 ft 477 kts 68°
2026-05-09 02:44 39.86607 -83.38284 24047 ft 476 kts 54°
2026-05-09 02:44 39.88687 -83.34936 24644 ft 473 kts 39°
2026-05-09 02:44 39.91297 -83.32340 25176 ft 468 kts 25°
2026-05-09 02:44 39.94077 -83.30173 25752 ft 471 kts 24°
2026-05-09 02:45 39.96882 -83.27985 26391 ft 473 kts 24°
2026-05-09 02:45 39.99720 -83.25768 26924 ft 478 kts 24°
2026-05-09 02:45 40.02617 -83.23500 27442 ft 481 kts 24°
2026-05-09 02:45 40.05490 -83.21246 27959 ft 484 kts 23°
2026-05-09 02:46 40.08381 -83.18975 28505 ft 486 kts 23°
2026-05-09 02:46 40.11304 -83.16676 28961 ft 490 kts 23°
2026-05-09 02:46 40.14211 -83.14387 29447 ft 491 kts 22°
2026-05-09 02:46 40.17157 -83.12060 30069 ft 489 kts 22°
2026-05-09 02:47 40.20025 -83.09793 30670 ft 487 kts 22°
2026-05-09 02:47 40.22927 -83.07497 31155 ft 487 kts 22°
2026-05-09 02:47 40.25845 -83.05187 31600 ft 487 kts 22°
2026-05-09 02:47 40.28728 -83.02903 32050 ft 487 kts 21°
2026-05-09 02:48 40.31618 -83.00610 32459 ft 487 kts 21°
2026-05-09 02:48 40.34530 -82.98297 32825 ft 488 kts 21°
2026-05-09 02:48 40.37415 -82.96004 33180 ft 489 kts 21°
2026-05-09 02:48 40.40349 -82.93669 33567 ft 490 kts 21°
2026-05-09 02:49 40.43250 -82.91358 33907 ft 491 kts 21°
2026-05-09 02:49 40.46182 -82.89017 34317 ft 490 kts 20°
2026-05-09 02:49 40.49071 -82.86710 34599 ft 490 kts 20°
2026-05-09 02:49 40.51967 -82.84393 34959 ft 488 kts 20°
2026-05-09 02:50 40.54864 -82.82074 35253 ft 488 kts 20°
2026-05-09 02:50 40.57778 -82.79739 35510 ft 489 kts 21°
2026-05-09 02:50 40.60670 -82.77422 35778 ft 489 kts 20°
2026-05-09 02:50 40.63600 -82.75069 36067 ft 488 kts 21°
2026-05-09 02:51 40.66489 -82.72746 36340 ft 488 kts 21°
2026-05-09 02:51 40.69360 -82.70435 36618 ft 486 kts 21°
2026-05-09 02:51 40.72248 -82.68109 36855 ft 487 kts 21°
2026-05-09 02:51 40.75169 -82.65756 37088 ft 487 kts 21°
2026-05-09 02:52 40.78053 -82.63428 37329 ft 487 kts 21°
2026-05-09 02:52 40.80904 -82.61124 37554 ft 486 kts 21°
2026-05-09 02:52 40.83793 -82.58789 37745 ft 487 kts 21°
2026-05-09 02:52 40.86677 -82.56454 37968 ft 487 kts 21°
2026-05-09 02:53 40.89580 -82.54100 38205 ft 486 kts 22°
2026-05-09 02:53 40.92452 -82.51771 38373 ft 487 kts 22°
2026-05-09 02:53 40.95339 -82.49427 38531 ft 487 kts 22°
2026-05-09 02:53 40.98190 -82.47109 38705 ft 487 kts 22°
2026-05-09 02:54 41.01086 -82.44752 38919 ft 487 kts 22°
2026-05-09 02:54 41.06900 -82.40020 38898 ft 496 kts 22°
2026-05-09 02:55 41.12826 -82.35181 38866 ft 499 kts 22°
2026-05-09 02:55 41.18763 -82.30318 38909 ft 498 kts 23°
2026-05-09 02:56 41.24619 -82.25513 38910 ft 499 kts 23°
2026-05-09 02:56 41.30545 -82.20641 38906 ft 499 kts 23°
2026-05-09 02:57 41.36495 -82.15862 38894 ft 494 kts 19°
2026-05-09 02:57 41.42646 -82.12064 38907 ft 488 kts 15°
2026-05-09 02:58 41.48799 -82.08340 38887 ft 487 kts 15°
2026-05-09 02:58 41.54952 -82.04603 38902 ft 487 kts 15°
2026-05-09 02:59 41.61123 -82.00845 38888 ft 489 kts 15°
2026-05-09 02:59 41.67322 -81.97060 38579 ft 490 kts 15°
2026-05-09 02:59 41.70409 -81.95167 38237 ft 485 kts 15°
2026-05-09 03:00 41.73456 -81.93296 37889 ft 481 kts 14°
2026-05-09 03:00 41.76447 -81.91458 37539 ft 478 kts 14°
2026-05-09 03:00 41.79479 -81.89594 37203 ft 475 kts 14°
2026-05-09 03:00 41.82466 -81.87756 36861 ft 473 kts 13°
2026-05-09 03:01 41.85434 -81.85929 36507 ft 473 kts 13°
2026-05-09 03:01 41.88446 -81.84073 36159 ft 472 kts 13°
2026-05-09 03:01 41.91385 -81.82259 35799 ft 471 kts 12°
2026-05-09 03:01 41.94362 -81.80420 35465 ft 470 kts 12°
2026-05-09 03:02 41.97322 -81.78591 35131 ft 471 kts 12°
2026-05-09 03:02 42.00307 -81.76743 34747 ft 471 kts 12°
2026-05-09 03:02 42.03265 -81.74910 34374 ft 471 kts 12°
2026-05-09 03:02 42.06239 -81.73067 34004 ft 472 kts 12°
2026-05-09 03:03 42.09240 -81.71204 33663 ft 474 kts 12°
2026-05-09 03:03 42.12239 -81.69340 33312 ft 476 kts 12°
2026-05-09 03:03 42.15269 -81.67456 32960 ft 477 kts 13°
2026-05-09 03:03 42.18257 -81.65595 32621 ft 478 kts 13°
2026-05-09 03:04 42.21280 -81.63709 32265 ft 479 kts 13°
2026-05-09 03:04 42.24290 -81.61744 31924 ft 487 kts 17°
2026-05-09 03:04 42.27179 -81.59324 31584 ft 500 kts 25°
2026-05-09 03:04 42.29936 -81.56371 31227 ft 508 kts 30°
2026-05-09 03:05 42.32652 -81.53322 30874 ft 509 kts 30°
2026-05-09 03:05 42.35383 -81.50257 30535 ft 510 kts 30°
2026-05-09 03:05 42.38095 -81.47208 30190 ft 511 kts 31°
2026-05-09 03:05 42.40830 -81.44128 29853 ft 511 kts 30°
2026-05-09 03:06 42.43572 -81.41035 29384 ft 513 kts 31°
2026-05-09 03:06 42.46267 -81.37991 28700 ft 511 kts 31°
2026-05-09 03:06 42.48979 -81.34918 28074 ft 504 kts 32°
2026-05-09 03:06 42.51665 -81.31870 27397 ft 497 kts 32°
2026-05-09 03:07 42.54293 -81.28884 26768 ft 490 kts 33°
2026-05-09 03:07 42.56870 -81.25954 26104 ft 484 kts 33°
2026-05-09 03:07 42.59450 -81.23017 25470 ft 477 kts 33°
2026-05-09 03:07 42.61962 -81.20155 24835 ft 471 kts 33°
2026-05-09 03:08 42.64455 -81.17312 24201 ft 464 kts 33°
2026-05-09 03:08 42.66895 -81.14526 23603 ft 457 kts 34°
2026-05-09 03:08 42.69318 -81.11757 23008 ft 453 kts 34°
2026-05-09 03:08 42.71724 -81.09006 22391 ft 450 kts 34°
2026-05-09 03:09 42.74069 -81.06320 21819 ft 443 kts 34°
2026-05-09 03:09 42.76419 -81.03626 21268 ft 438 kts 34°
2026-05-09 03:09 42.78739 -81.00964 20668 ft 435 kts 35°
2026-05-09 03:09 42.81021 -80.98344 20097 ft 430 kts 35°
2026-05-09 03:10 42.83288 -80.95737 19538 ft 426 kts 35°
2026-05-09 03:10 42.85548 -80.93137 18964 ft 422 kts 35°
2026-05-09 03:10 42.87783 -80.90561 18385 ft 417 kts 35°
2026-05-09 03:10 42.89953 -80.88058 18036 ft 412 kts 35°
2026-05-09 03:11 42.92157 -80.85515 17400 ft 411 kts 36°
2026-05-09 03:11 42.94314 -80.83021 16898 ft 403 kts 36°
2026-05-09 03:11 42.96439 -80.80563 16304 ft 397 kts 36°
2026-05-09 03:11 42.98509 -80.78164 15856 ft 390 kts 36°
2026-05-09 03:12 43.00563 -80.75783 15283 ft 384 kts 36°
2026-05-09 03:12 43.02587 -80.73434 14791 ft 376 kts 36°
2026-05-09 03:12 43.04549 -80.71156 14301 ft 369 kts 36°
2026-05-09 03:12 43.06502 -80.68885 13810 ft 362 kts 36°
2026-05-09 03:13 43.10258 -80.64514 12877 ft 349 kts 36°
2026-05-09 03:13 43.12086 -80.62384 12417 ft 343 kts 36°
2026-05-09 03:13 43.13887 -80.60283 11963 ft 338 kts 36°
2026-05-09 03:14 43.15661 -80.58214 11518 ft 332 kts 36°
2026-05-09 03:14 43.17409 -80.56172 11075 ft 327 kts 36°
2026-05-09 03:14 43.19133 -80.54158 10636 ft 323 kts 36°
2026-05-09 03:14 43.20835 -80.52167 10205 ft 319 kts 36°
2026-05-09 03:15 43.22492 -80.50228 9801 ft 314 kts 36°
2026-05-09 03:15 43.24143 -80.48292 9351 ft 306 kts 37°
2026-05-09 03:15 43.25716 -80.46446 8992 ft 294 kts 37°
2026-05-09 03:15 43.27238 -80.44659 8590 ft 283 kts 37°
2026-05-09 03:16 43.28711 -80.42928 8282 ft 273 kts 37°
2026-05-09 03:16 43.30158 -80.41229 7904 ft 272 kts 37°
2026-05-09 03:16 43.31578 -80.39561 7550 ft 265 kts 37°
2026-05-09 03:16 43.32951 -80.37944 7178 ft 257 kts 37°
2026-05-09 03:17 43.34294 -80.36362 6845 ft 249 kts 37°
2026-05-09 03:17 43.35609 -80.34816 6536 ft 249 kts 38°
2026-05-09 03:17 43.36827 -80.33381 6228 ft 244 kts 38°
2026-05-09 03:17 43.38128 -80.31847 5889 ft 239 kts 38°
2026-05-09 03:18 43.39363 -80.30334 5583 ft 238 kts 45°
2026-05-09 03:18 43.40213 -80.28421 5271 ft 234 kts 65°
2026-05-09 03:18 43.40871 -80.26451 4972 ft 223 kts 65°
2026-05-09 03:18 43.41522 -80.24547 4679 ft 213 kts 63°
2026-05-09 03:19 43.42381 -80.22932 4386 ft 207 kts 44°
2026-05-09 03:19 43.43543 -80.21848 4139 ft 202 kts 23°
2026-05-09 03:19 43.44904 -80.21356 3845 ft 200 kts
2026-05-09 03:19 43.46258 -80.21523 3580 ft 194 kts 341°
2026-05-09 03:20 43.47493 -80.22244 3321 ft 193 kts 325°
2026-05-09 03:20 43.48472 -80.23408 3033 ft 181 kts 305°
2026-05-09 03:20 43.49073 -80.24815 2848 ft 162 kts 287°
2026-05-09 03:20 43.49360 -80.26254 2632 ft 148 kts 273°
2026-05-09 03:21 43.49377 -80.27546 2459 ft 125 kts 259°
2026-05-09 03:21 43.49211 -80.28709 2294 ft 123 kts 249°
2026-05-09 03:21 43.48898 -80.29786 2122 ft 120 kts 241°
2026-05-09 03:21 43.48550 -80.30828 1970 ft 120 kts 242°
2026-05-09 03:22 43.48194 -80.31868 1798 ft 119 kts 240°
2026-05-09 03:22 43.47836 -80.32896 1648 ft 120 kts 243°
2026-05-09 03:22 43.47480 -80.33952 1489 ft 122 kts 242°
2026-05-09 03:22 43.47131 -80.35004 1347 ft 122 kts 243°
2026-05-09 03:23 43.46773 -80.36073 1170 ft 123 kts 243°
2026-05-09 03:23 43.46416 -80.37138 1052 ft 115 kts 243°
2026-05-09 03:23 43.46138 -80.37944 1038 ft 67 kts 245°
2026-05-09 03:23 43.45978 -80.38423 1034 ft 52 kts 244°
2026-05-09 03:24 43.45866 -80.38760 1032 ft 28 kts 245°
2026-05-09 03:24 43.45799 -80.38933 1031 ft 13 kts 212°
2026-05-09 03:24 43.45717 -80.38908 1031 ft 5 kts 155°
2026-05-09 03:24 43.45686 -80.38886 1031 ft 6 kts 141°
2026-05-09 03:25 43.45674 -80.38844 1031 ft 0 kts 84°
2026-05-09 03:25 43.45658 -80.38786 1031 ft 8 kts 109°
2026-05-09 03:25 43.45648 -80.38721 1032 ft 1 kts 98°
2026-05-09 03:26 43.45647 -80.38715 1032 ft 0 kts 99°